Angola Tri-State Steuben Coun, IN

5:00 PM EDT on July 22, 2017 (GMT -0400)
Tri-State Steuben County

Weather History for KANQ - February, 2014

Change the Weather History Date:

Tuesday, February 18, 2014

  Actual Average (KFWA) Record (KFWA)
Temperature  
Mean Temperature 33 °F -  
Max Temperature 42 °F 38 °F 67 °F (2017)
Min Temperature 24 °F 22 °F -13 °F (1936)
Degree Days  
Heating Degree Days 32    
Moisture  
Dew Point 21 °F    
Average Humidity 65    
Maximum Humidity 80    
Minimum Humidity 53    
Precipitation  
Precipitation 0.00 in - - ()
Sea Level Pressure  
Sea Level Pressure 29.84 in    
Wind  
Wind Speed 12 mph (SW)    
Max Wind Speed 16 mph    
Max Gust Speed 28 mph    
Visibility 10 miles    
Events      
Averages and records for this station are not official NWS values.
T = Trace of Precipitation, MM = Missing Value Source: NWS Daily Summary

Daily Weather History Graph

Daily Weather History Graph

Search for Another Location

Airport or City:

Trip Planner

Search our weather history database for the weather conditions in past years. The results will help you decide how hot, cold, wet, or windy it might be!

Date:

Astronomy

Feb. 18, 2014 Rise Set
Actual Time 7:31 AM EST 6:17 PM EST
Civil Twilight 7:03 AM EST 6:45 PM EST
Nautical Twilight 6:30 AM EST 7:18 PM EST
Astronomical Twilight 5:58 AM EST 7:50 PM EST
Moon 10:14 PM EST (2/18) 9:00 AM EST (2/18)
Length of Visible Light 11h 42m
Length of Day
10h 46m
Waning Gibbous, 87% of the Moon is Illuminated
Feb 18
Waning Gibbous
Feb 22
Last Quarter
Mar 1
New
Mar 8
First Quarter
Mar 16
Full

Hourly Weather History & Observations

Time (EST) Temp. Windchill Dew Point Humidity Pressure Visibility Wind Dir Wind Speed Gust Speed Precip Events Conditions
12:35 AM 24.8 °F 11.9 °F 12.2 °F 59% 29.67 in 10.0 mi West 16.1 mph - N/A   Overcast
12:55 AM 24.8 °F 13.4 °F 14.0 °F 64% 29.68 in 10.0 mi West 12.7 mph - N/A   Overcast
1:15 AM 24.8 °F 12.4 °F 14.0 °F 64% 29.69 in 10.0 mi West 15.0 mph - N/A   Overcast
1:35 AM 24.8 °F 12.9 °F 15.8 °F 69% 29.71 in 9.0 mi WNW 13.8 mph - N/A   Overcast
1:55 AM 24.8 °F 12.9 °F 14.0 °F 64% 29.72 in 10.0 mi West 13.8 mph - N/A   Overcast
2:15 AM 24.8 °F 14.0 °F 14.0 °F 64% 29.74 in 10.0 mi WNW 11.5 mph - N/A   Overcast
2:35 AM 24.8 °F 14.0 °F 15.8 °F 69% 29.75 in 10.0 mi WNW 11.5 mph - N/A   Overcast
2:55 AM 24.8 °F 12.4 °F 12.2 °F 59% 29.77 in 10.0 mi West 15.0 mph - N/A   Overcast
3:15 AM 24.8 °F 11.9 °F 12.2 °F 59% 29.78 in 10.0 mi West 16.1 mph - N/A   Overcast
3:35 AM 24.8 °F 12.9 °F 12.2 °F 59% 29.79 in 9.0 mi WNW 13.8 mph 27.6 mph N/A   Overcast
3:55 AM 24.8 °F 12.4 °F 12.2 °F 59% 29.80 in 10.0 mi WNW 15.0 mph - N/A   Overcast
4:15 AM 24.8 °F 13.4 °F 12.2 °F 59% 29.81 in 10.0 mi WNW 12.7 mph - N/A   Overcast
4:35 AM 24.8 °F 12.9 °F 12.2 °F 59% 29.84 in 10.0 mi West 13.8 mph - N/A   Overcast
4:55 AM 24.8 °F 16.1 °F 14.0 °F 64% 29.86 in 10.0 mi WNW 8.1 mph - N/A   Overcast
5:15 AM 24.8 °F 13.4 °F 15.8 °F 69% 29.86 in 10.0 mi NW 12.7 mph - N/A   Overcast
5:35 AM 24.8 °F 12.4 °F 12.2 °F 59% 29.88 in 10.0 mi WNW 15.0 mph - N/A   Overcast
5:55 AM 24.8 °F 15.3 °F 17.6 °F 74% 29.90 in 10.0 mi WNW 9.2 mph - N/A   Overcast
6:15 AM 24.8 °F 16.1 °F 19.4 °F 80% 29.91 in 10.0 mi WNW 8.1 mph - N/A   Overcast
6:35 AM 24.8 °F 14.6 °F 12.2 °F 59% 29.91 in 10.0 mi WNW 10.4 mph - N/A   Overcast
6:55 AM 24.8 °F 15.3 °F 15.8 °F 69% 29.92 in 10.0 mi WNW 9.2 mph - N/A   Overcast
7:15 AM 24.8 °F 14.0 °F 12.2 °F 59% 29.93 in 10.0 mi WNW 11.5 mph - N/A   Overcast
7:35 AM 24.8 °F 17.9 °F 12.2 °F 59% 29.94 in 10.0 mi West 5.8 mph - N/A   Overcast
7:55 AM 24.8 °F 20.5 °F 12.2 °F 59% 29.95 in 10.0 mi West 3.5 mph - N/A   Overcast
8:15 AM 24.8 °F 16.9 °F 14.0 °F 64% 29.95 in 10.0 mi WNW 6.9 mph - N/A   Overcast
8:35 AM 24.8 °F 19.1 °F 14.0 °F 64% 29.96 in 10.0 mi West 4.6 mph - N/A   Overcast
8:55 AM 24.8 °F 16.9 °F 12.2 °F 59% 29.97 in 10.0 mi West 6.9 mph - N/A   Overcast
9:15 AM 24.8 °F 15.3 °F 12.2 °F 59% 29.99 in 10.0 mi WSW 9.2 mph - N/A   Overcast
9:35 AM 24.8 °F 15.3 °F 14.0 °F 64% 29.99 in 10.0 mi WSW 9.2 mph - N/A   Overcast
9:55 AM 26.6 °F 17.5 °F 12.2 °F 55% 29.99 in 10.0 mi WSW 9.2 mph - N/A   Mostly Cloudy
10:15 AM 24.8 °F 14.6 °F 12.2 °F 59% 30.00 in 10.0 mi WSW 10.4 mph - N/A   Mostly Cloudy
10:35 AM 26.6 °F 16.2 °F 14.0 °F 59% 30.00 in 10.0 mi WSW 11.5 mph - N/A   Mostly Cloudy
10:55 AM 26.6 °F 15.7 °F 15.8 °F 64% 30.00 in 10.0 mi SW 12.7 mph - N/A   Partly Cloudy
11:15 AM 26.6 °F 17.5 °F 15.8 °F 64% 29.99 in 9.0 mi SW 9.2 mph - N/A   Mostly Cloudy
11:35 AM 28.4 °F 19.7 °F 17.6 °F 64% 29.98 in 8.0 mi SW 9.2 mph - N/A   Scattered Clouds
11:55 AM 30.2 °F 22.6 °F 21.2 °F 69% 29.98 in 8.0 mi SW 8.1 mph - N/A   Clear
12:15 PM 30.2 °F 21.9 °F 24.8 °F 80% 29.97 in 10.0 mi SSW 9.2 mph - N/A   Clear
12:35 PM 30.2 °F 22.6 °F 24.8 °F 80% 29.96 in 10.0 mi South 8.1 mph - N/A   Clear
12:55 PM 33.8 °F 26.4 °F 24.8 °F 70% 29.95 in 10.0 mi South 9.2 mph - N/A   Clear
1:15 PM 33.8 °F 26.4 °F 26.6 °F 75% 29.93 in 10.0 mi SSE 9.2 mph - N/A   Clear
1:35 PM 33.8 °F 25.3 °F 26.6 °F 75% 29.93 in 10.0 mi South 11.5 mph - N/A   Clear
1:55 PM 35.6 °F 28.0 °F 26.6 °F 70% 29.91 in 10.0 mi South 10.4 mph - N/A   Clear
2:15 PM 35.6 °F 27.1 °F 26.6 °F 70% 29.89 in 10.0 mi South 12.7 mph - N/A   Clear
2:35 PM 37.4 °F 30.3 °F 26.6 °F 65% 29.89 in 10.0 mi South 10.4 mph - N/A   Clear
2:55 PM 37.4 °F 28.5 °F 26.6 °F 65% 29.87 in 10.0 mi South 15.0 mph - N/A   Clear
3:15 PM 37.4 °F 29.8 °F 28.4 °F 70% 29.86 in 10.0 mi South 11.5 mph - N/A   Clear
3:35 PM 37.4 °F 29.8 °F 26.6 °F 65% 29.85 in 10.0 mi South 11.5 mph - N/A   Clear
3:55 PM 39.2 °F 31.2 °F 28.4 °F 65% 29.83 in 10.0 mi South 13.8 mph - N/A   Clear
4:15 PM 37.4 °F 29.8 °F 28.4 °F 70% 29.83 in 10.0 mi South 11.5 mph - N/A   Clear
4:35 PM 37.4 °F 29.3 °F 28.4 °F 70% 29.82 in 10.0 mi South 12.7 mph - N/A   Clear
4:55 PM 37.4 °F 29.8 °F 28.4 °F 70% 29.82 in 10.0 mi South 11.5 mph - N/A   Clear
5:15 PM 37.4 °F 29.8 °F 28.4 °F 70% 29.80 in 10.0 mi SSE 11.5 mph - N/A   Clear
5:35 PM 37.4 °F 29.8 °F 28.4 °F 70% 29.79 in 10.0 mi SSE 11.5 mph - N/A   Clear
5:55 PM 37.4 °F 31.4 °F 28.4 °F 70% 29.79 in 10.0 mi SSE 8.1 mph - N/A   Clear
6:15 PM 37.4 °F 30.8 °F 28.4 °F 70% 29.77 in 10.0 mi SSE 9.2 mph - N/A   Clear
6:35 PM 37.4 °F 32.8 °F 28.4 °F 70% 29.79 in 10.0 mi South 5.8 mph - N/A   Clear
6:55 PM 37.4 °F 32.1 °F 28.4 °F 70% 29.79 in 10.0 mi South 6.9 mph - N/A   Clear
7:15 PM 37.4 °F 31.4 °F 28.4 °F 70% 29.77 in 10.0 mi South 8.1 mph - N/A   Clear
7:35 PM 41.0 °F 33.5 °F 26.6 °F 57% 29.76 in 10.0 mi South 13.8 mph - N/A   Clear
7:55 PM 42.8 °F 36.2 °F 26.6 °F 53% 29.75 in 10.0 mi South 12.7 mph - N/A   Clear
8:15 PM 42.8 °F 36.2 °F 26.6 °F 53% 29.76 in 10.0 mi SSW 12.7 mph - N/A   Clear
8:35 PM 41.0 °F 33.9 °F 28.4 °F 61% 29.75 in 10.0 mi South 12.7 mph - N/A   Clear
8:55 PM 41.0 °F 33.9 °F 28.4 °F 61% 29.74 in 10.0 mi SSW 12.7 mph - N/A   Clear
9:15 PM 39.2 °F 32.0 °F 28.4 °F 65% 29.74 in 10.0 mi South 11.5 mph - N/A   Clear
9:35 PM 39.2 °F 32.5 °F 28.4 °F 65% 29.73 in 10.0 mi SSW 10.4 mph - N/A   Clear
9:55 PM 39.2 °F 32.0 °F 28.4 °F 65% 29.72 in 10.0 mi SSW 11.5 mph - N/A   Clear
10:15 PM 39.2 °F 33.0 °F 28.4 °F 65% 29.71 in 10.0 mi SSW 9.2 mph - N/A   Clear
10:35 PM 39.2 °F 32.5 °F 28.4 °F 65% 29.70 in 10.0 mi SSW 10.4 mph - N/A   Clear
10:55 PM 39.2 °F 32.5 °F 28.4 °F 65% 29.70 in 10.0 mi SSW 10.4 mph - N/A   Clear
11:15 PM 39.2 °F 33.6 °F 28.4 °F 65% 29.69 in 10.0 mi SSW 8.1 mph - N/A   Clear
11:35 PM 39.2 °F 33.0 °F 28.4 °F 65% 29.68 in 10.0 mi SSW 9.2 mph - N/A   Clear
11:55 PM 39.2 °F 32.5 °F 28.4 °F 65% 29.67 in 10.0 mi SSW 10.4 mph - N/A   Clear